Regional Weather Roundup
Issued by NWS

Home | Current Version | Previous Version | Text Only | Print | Product List | Glossary On
Versions: 1 2 3 4 5 6 7 8 9 10 11 12 13 14 15 16 17 18 19 20 21 22 23 24 25 26 27 28 29 30 31 32 33 34 35 36 37 38 39 40 41 42 43 44 45 46 47 48 49 50
043
ASUS43 KOAX 280502
RWRNE

WEATHER ROUNDUP FOR NEBRASKA
NATIONAL WEATHER SERVICE OMAHA NE
1100 PM CST MON FEB 27 2017

NOTES: SATELLITE DATA IS BEING USED TO AUGMENT CLOUD COVER ABOVE
       12000 FEET.
       "FAIR" INDICATES FEW OR NO CLOUDS BELOW 12,000 FEET WITH NO
       SIGNIFICANT WEATHER AND/OR OBSTRUCTIONS TO VISIBILITY.

  * THESE STATIONS DO NOT REPORT WEATHER SUCH AS RAIN...SNOW OR FOG.

NEZ001>004-019>022-054>056-280600-
NEBRASKA PANHANDLE

CITY           SKY/WX    TMP DP  RH WIND       PRES   REMARKS
SCOTTSBLUFF    CLOUDY    28  25  88 W6        29.69S WCI  22
ALLIANCE       CLOUDY    24  21  88 W6        29.67R WCI  17
CHADRON        CLOUDY    29  27  92 W5        29.70R WCI  24
KIMBALL        CLOUDY    28  28 100 NW8       29.66F WCI  20
SIDNEY         CLOUDY    28  24  85 NW10      29.67R WCI  19
$$

NEZ057>060-069>072-079>082-280600-
SOUTHWEST NEBRASKA

CITY           SKY/WX    TMP DP  RH WIND       PRES   REMARKS
NORTH PLATTE   CLOUDY    34  24  67 E10       29.53F WCI  26
IMPERIAL       CLOUDY    39  20  46 NW15      29.55R WCI  31
LEXINGTON      CLOUDY    39  31  71 SE10      29.56F WCI  33
MCCOOK         CLOUDY    48  17  29 S12       29.54F
OGALLALA       CLOUDY    37  28  72 NW17      29.59R WCI  27
$$

NEZ005>010-023>029-035>040-094-280600-
NORTH CENTRAL NEBRASKA

CITY           SKY/WX    TMP DP  RH WIND       PRES   REMARKS
VALENTINE      CLOUDY    34  27  75 NW7       29.70R WCI  28
AINSWORTH      CLOUDY    32  30  93 NW7       29.65R WCI  26
BROKEN BOW     CLOUDY    37  29  72 E6        29.56F WCI  32
O`NEILL        MOCLDY    37  34  89 SE7       29.63S WCI  31
ORD            CLOUDY    37  33  85 E5        29.59F WCI  33
THEDFORD       PTCLDY    34  31  87 NW6       29.65R WCI  29
$$

NEZ041-046>049-061>064-073>077-083>087-280600-
SOUTH CENTRAL NEBRASKA

CITY           SKY/WX    TMP DP  RH WIND       PRES   REMARKS
GRAND ISLAND   CLOUDY    41  38  89 SE9       29.61F
AURORA         CLOUDY    38  36  92 SE9       29.62F WCI  32
HASTINGS       CLOUDY    46  38  73 SE13      29.62F
HEBRON         CLOUDY    45  40  82 E5        29.64F
HOLDREGE       CLOUDY    40  35  82 S9        29.58F WCI  34
KEARNEY *      CLOUDY    39  36  87 SE9       29.59F WCI  33
YORK           CLOUDY    43  39  87 SE10      29.65F
$$

NEZ011>018-030>034-042>045-280600-
NORTHEAST NEBRASKA

CITY           SKY/WX    TMP DP  RH WIND       PRES   REMARKS
NORFOLK        CLOUDY    37  30  75 SE9       29.64F WCI  30
ALBION         CLOUDY    38  33  83 SE7       29.63F WCI  33
BLAIR          CLOUDY    44  32  63 SE7       29.70F
FREMONT        CLOUDY    40  31  69 E5        29.70F
TEKAMAH        CLOUDY    35  29  78 CALM      29.72F
WAYNE          CLEAR     35  30  80 E3        29.67F
$$

NEZ050>053-065>068-078-088>093-280600-
SOUTHEAST NEBRASKA

CITY           SKY/WX    TMP DP  RH WIND       PRES   REMARKS
LINCOLN        CLOUDY    36  31  82 CALM      29.70F
OMAHA EPPLEY   CLOUDY    42  30  62 CALM      29.72F
BEATRICE       CLOUDY    47  42  84 SE5       29.68F
FALLS CITY     CLOUDY    49  40  71 SE6       29.71F
NEBRASKA CITY  CLOUDY    45  32  60 SE5       29.72F
PLATTSMOUTH    CLOUDY    46  32  57 SE7       29.72S
$$

NEZ044-045-051>053-067-280600-
OMAHA AREA

CITY           SKY/WX    TMP DP  RH WIND       PRES   REMARKS
OMAHA EPPLEY   CLOUDY    42  30  62 CALM      29.72F
BLAIR          CLOUDY    44  32  63 SE7       29.70F
FREMONT        CLOUDY    40  31  69 E5        29.70F
MILLARD        CLOUDY    41  34  75 CALM      29.71F
OFFUTT AFB     CLOUDY    39  31  75 SE6       29.71F WCI  35
PLATTSMOUTH    CLOUDY    46  32  57 SE7       29.72S
WAHOO          FAIR      37  31  78 E3        29.69F
$$




USA.gov is the U.S. government's official web portal to all federal, state and local government web resources and services.